JBU344 KBOS-KJFK

Flight info

Callsign JBU344
Flight time 0h 43m
Altitude 22000
Route SSOXS7 SSOXS BUZRD SEY PARCH3
Aircraft A20N/M-SDE2E3FGHIRWXY/LB1

Departure

Time 2026-05-08 00:34
Airport Boston Logan International Airport (KBOS)

Arrival

Time 2026-05-08 01:18
Airport John F. Kennedy International Airport (KJFK)
Time Latitude Longitude Altitude Speed Heading
2026-05-08 00:15 42.36546 -71.01406 16 ft 0 kts 324°
2026-05-08 00:26 42.36540 -71.01399 16 ft 2 kts 323°
2026-05-08 00:26 42.36527 -71.01386 16 ft 2 kts 321°
2026-05-08 00:27 42.36514 -71.01371 16 ft 2 kts 318°
2026-05-08 00:27 42.36506 -71.01352 15 ft 2 kts 243°
2026-05-08 00:27 42.36517 -71.01335 16 ft 2 kts 214°
2026-05-08 00:27 42.36524 -71.01329 15 ft 0 kts 210°
2026-05-08 00:30 42.36523 -71.01330 15 ft 1 kts 210°
2026-05-08 00:30 42.36505 -71.01344 18 ft 5 kts 210°
2026-05-08 00:30 42.36464 -71.01369 15 ft 8 kts 201°
2026-05-08 00:30 42.36398 -71.01400 15 ft 12 kts 191°
2026-05-08 00:31 42.36339 -71.01318 16 ft 14 kts 122°
2026-05-08 00:31 42.36282 -71.01196 18 ft 17 kts 121°
2026-05-08 00:31 42.36224 -71.01035 18 ft 22 kts 113°
2026-05-08 00:31 42.36157 -71.00832 15 ft 26 kts 114°
2026-05-08 00:32 42.36086 -71.00579 16 ft 30 kts 108°
2026-05-08 00:32 42.36033 -71.00373 16 ft 20 kts 111°
2026-05-08 00:32 42.35986 -71.00182 19 ft 23 kts 110°
2026-05-08 00:32 42.35891 -70.99989 18 ft 27 kts 135°
2026-05-08 00:33 42.35751 -70.99803 17 ft 30 kts 135°
2026-05-08 00:33 42.35593 -70.99590 15 ft 34 kts 134°
2026-05-08 00:33 42.35488 -70.99394 13 ft 20 kts 71°
2026-05-08 00:33 42.35562 -70.99287 13 ft 16 kts 329°
2026-05-08 00:34 42.35643 -70.99397 12 ft 26 kts 315°
2026-05-08 00:34 42.35949 -70.99806 21 ft 96 kts 315°
2026-05-08 00:34 42.36557 -71.00623 27 ft 147 kts 314°
2026-05-08 00:34 42.37281 -71.01583 778 ft 145 kts 311°
2026-05-08 00:35 42.37985 -71.02575 1590 ft 149 kts 310°
2026-05-08 00:35 42.38660 -71.03701 2159 ft 161 kts 304°
2026-05-08 00:35 42.39280 -71.05083 2510 ft 184 kts 300°
2026-05-08 00:35 42.39958 -71.06679 3031 ft 207 kts 300°
2026-05-08 00:36 42.40589 -71.08537 3663 ft 230 kts 284°
2026-05-08 00:36 42.40574 -71.10783 4481 ft 250 kts 256°
2026-05-08 00:36 42.39746 -71.12886 5574 ft 259 kts 237°
2026-05-08 00:36 42.38682 -71.14884 6696 ft 263 kts 237°
2026-05-08 00:37 42.37606 -71.16894 7873 ft 264 kts 237°
2026-05-08 00:37 42.36352 -71.18723 9037 ft 271 kts 219°
2026-05-08 00:37 42.34589 -71.19722 10130 ft 284 kts 193°
2026-05-08 00:38 42.30388 -71.18704 11383 ft 337 kts 165°
2026-05-08 00:38 42.28151 -71.17515 12065 ft 351 kts 163°
2026-05-08 00:38 42.25941 -71.16032 13060 ft 360 kts 155°
2026-05-08 00:38 42.23847 -71.14083 13672 ft 371 kts 147°
2026-05-08 00:39 42.21919 -71.11803 13928 ft 375 kts 145°
2026-05-08 00:39 42.19958 -71.09463 14582 ft 377 kts 146°
2026-05-08 00:39 42.17994 -71.07140 15590 ft 376 kts 147°
2026-05-08 00:39 42.16013 -71.04819 16458 ft 379 kts 148°
2026-05-08 00:40 42.13938 -71.02686 17372 ft 373 kts 155°
2026-05-08 00:40 42.11761 -71.00663 18234 ft 376 kts 156°
2026-05-08 00:40 42.09624 -70.98677 18911 ft 381 kts 156°
2026-05-08 00:40 42.07396 -70.96606 19589 ft 386 kts 156°
2026-05-08 00:41 42.05172 -70.94536 20262 ft 391 kts 155°
2026-05-08 00:41 42.00575 -70.90258 21514 ft 402 kts 155°
2026-05-08 00:41 41.98271 -70.88116 21738 ft 404 kts 155°
2026-05-08 00:42 41.96003 -70.86010 21798 ft 407 kts 155°
2026-05-08 00:42 41.93675 -70.83849 21804 ft 406 kts 155°
2026-05-08 00:42 41.91351 -70.81691 21804 ft 406 kts 155°
2026-05-08 00:42 41.89025 -70.79535 21804 ft 406 kts 155°
2026-05-08 00:43 41.86609 -70.77744 21805 ft 388 kts 169°
2026-05-08 00:43 41.84050 -70.76933 21805 ft 370 kts 185°
2026-05-08 00:43 41.81534 -70.77057 21804 ft 355 kts 198°
2026-05-08 00:43 41.79220 -70.77993 21761 ft 343 kts 211°
2026-05-08 00:44 41.77137 -70.79516 21801 ft 341 kts 216°
2026-05-08 00:44 41.75064 -70.81093 21812 ft 346 kts 215°
2026-05-08 00:44 41.72901 -70.82732 21813 ft 367 kts 215°
2026-05-08 00:44 41.70617 -70.84456 21815 ft 386 kts 214°
2026-05-08 00:45 41.68216 -70.86258 21814 ft 403 kts 214°
2026-05-08 00:45 41.65787 -70.88072 21851 ft 406 kts 214°
2026-05-08 00:45 41.63324 -70.89903 21814 ft 404 kts 214°
2026-05-08 00:45 41.60839 -70.91752 21794 ft 405 kts 214°
2026-05-08 00:46 41.58408 -70.93580 21812 ft 405 kts 216°
2026-05-08 00:46 41.56078 -70.95650 21812 ft 401 kts 221°
2026-05-08 00:46 41.53933 -70.98017 21815 ft 398 kts 226°
2026-05-08 00:46 41.51996 -71.00641 21812 ft 396 kts 231°
2026-05-08 00:47 41.50241 -71.03470 21813 ft 396 kts 233°
2026-05-08 00:47 41.48507 -71.06321 21821 ft 396 kts 233°
2026-05-08 00:47 41.46762 -71.09171 21816 ft 396 kts 233°
2026-05-08 00:47 41.45017 -71.12012 21820 ft 396 kts 233°
2026-05-08 00:48 41.43269 -71.14851 21820 ft 398 kts 233°
2026-05-08 00:48 41.41513 -71.17700 21823 ft 397 kts 233°
2026-05-08 00:48 41.39755 -71.20548 21823 ft 397 kts 233°
2026-05-08 00:48 41.37997 -71.23394 21824 ft 397 kts 233°
2026-05-08 00:49 41.36240 -71.26236 21829 ft 398 kts 233°
2026-05-08 00:49 41.34480 -71.29080 21835 ft 398 kts 233°
2026-05-08 00:49 41.32720 -71.31921 21837 ft 398 kts 233°
2026-05-08 00:49 41.30983 -71.34724 21840 ft 398 kts 233°
2026-05-08 00:50 41.29223 -71.37558 21842 ft 398 kts 233°
2026-05-08 00:50 41.27457 -71.40403 21844 ft 398 kts 233°
2026-05-08 00:50 41.25693 -71.43241 21846 ft 398 kts 232°
2026-05-08 00:50 41.23931 -71.46072 21850 ft 398 kts 232°
2026-05-08 00:51 41.22167 -71.48905 21851 ft 398 kts 232°
2026-05-08 00:51 41.20402 -71.51736 21851 ft 398 kts 232°
2026-05-08 00:51 41.18735 -71.54661 21850 ft 396 kts 238°
2026-05-08 00:51 41.17403 -71.57851 21857 ft 394 kts 245°
2026-05-08 00:52 41.16435 -71.61252 21851 ft 394 kts 252°
2026-05-08 00:52 41.15835 -71.64805 21851 ft 396 kts 258°
2026-05-08 00:52 41.15404 -71.68422 21851 ft 396 kts 258°
2026-05-08 00:52 41.14965 -71.72027 21850 ft 396 kts 258°
2026-05-08 00:53 41.14519 -71.75634 21816 ft 396 kts 258°
2026-05-08 00:53 41.14068 -71.79250 21875 ft 398 kts 258°
2026-05-08 00:53 41.13616 -71.82868 21878 ft 397 kts 258°
2026-05-08 00:53 41.13163 -71.86482 21879 ft 397 kts 258°
2026-05-08 00:54 41.12710 -71.90096 21879 ft 397 kts 258°
2026-05-08 00:54 41.12255 -71.93714 21880 ft 397 kts 258°
2026-05-08 00:54 41.11798 -71.97332 21858 ft 397 kts 258°
2026-05-08 00:54 41.11341 -72.00947 21640 ft 396 kts 258°
2026-05-08 00:55 41.10887 -72.04530 21459 ft 390 kts 258°
2026-05-08 00:55 41.10445 -72.08015 21329 ft 375 kts 258°
2026-05-08 00:55 41.09992 -72.11339 21156 ft 358 kts 255°
2026-05-08 00:55 41.09357 -72.14465 20699 ft 346 kts 250°
2026-05-08 00:56 41.08619 -72.17390 20424 ft 332 kts 250°
2026-05-08 00:56 41.07911 -72.20227 20180 ft 319 kts 250°
2026-05-08 00:56 41.07218 -72.23020 19935 ft 321 kts 250°
2026-05-08 00:56 41.06519 -72.25840 19718 ft 321 kts 250°
2026-05-08 00:57 41.05823 -72.28646 19473 ft 319 kts 250°
2026-05-08 00:57 41.05130 -72.31440 19235 ft 318 kts 250°
2026-05-08 00:57 41.04439 -72.34218 18958 ft 317 kts 250°
2026-05-08 00:57 41.03746 -72.37000 18440 ft 318 kts 250°
2026-05-08 00:58 41.03287 -72.38840 18076 ft 316 kts 250°
2026-05-08 00:58 41.02594 -72.41615 17574 ft 309 kts 250°
2026-05-08 00:58 41.01931 -72.44267 17166 ft 307 kts 250°
2026-05-08 00:58 41.01255 -72.46969 16660 ft 303 kts 250°
2026-05-08 00:59 41.00599 -72.49590 16172 ft 298 kts 250°
2026-05-08 00:59 40.99951 -72.52172 15693 ft 293 kts 251°
2026-05-08 00:59 40.99321 -72.54681 15235 ft 289 kts 251°
2026-05-08 00:59 40.98692 -72.57182 14785 ft 284 kts 251°
2026-05-08 01:00 40.98079 -72.59622 14561 ft 270 kts 251°
2026-05-08 01:00 40.97502 -72.61907 14265 ft 256 kts 251°
2026-05-08 01:00 40.96941 -72.64126 13660 ft 254 kts 252°
2026-05-08 01:00 40.96378 -72.66349 13128 ft 254 kts 252°
2026-05-08 01:01 40.95812 -72.68586 12736 ft 258 kts 252°
2026-05-08 01:01 40.95244 -72.70834 12380 ft 256 kts 252°
2026-05-08 01:01 40.94677 -72.73072 12148 ft 258 kts 253°
2026-05-08 01:01 40.94107 -72.75328 12047 ft 258 kts 253°
2026-05-08 01:02 40.93533 -72.77573 12029 ft 258 kts 251°
2026-05-08 01:02 40.92679 -72.79673 12031 ft 262 kts 237°
2026-05-08 01:02 40.91397 -72.81414 11971 ft 266 kts 223°
2026-05-08 01:02 40.89888 -72.82852 11658 ft 267 kts 221°
2026-05-08 01:03 40.88383 -72.84281 11253 ft 267 kts 221°
2026-05-08 01:03 40.86869 -72.85727 10721 ft 270 kts 221°
2026-05-08 01:03 40.85359 -72.87174 10219 ft 273 kts 221°
2026-05-08 01:03 40.83817 -72.88653 9737 ft 275 kts 220°
2026-05-08 01:04 40.82265 -72.90142 9254 ft 275 kts 220°
2026-05-08 01:04 40.80740 -72.91601 9063 ft 265 kts 220°
2026-05-08 01:04 40.79288 -72.92985 9026 ft 249 kts 220°
2026-05-08 01:04 40.77928 -72.94279 8998 ft 233 kts 221°
2026-05-08 01:05 40.76635 -72.95515 9010 ft 231 kts 221°
2026-05-08 01:05 40.75533 -72.96991 9011 ft 222 kts 246°
2026-05-08 01:05 40.75023 -72.98880 8994 ft 218 kts 257°
2026-05-08 01:05 40.74600 -73.00794 8831 ft 217 kts 257°
2026-05-08 01:06 40.74178 -73.02704 8507 ft 217 kts 257°
2026-05-08 01:06 40.73757 -73.04621 8167 ft 218 kts 257°
2026-05-08 01:06 40.73335 -73.06538 7834 ft 218 kts 257°
2026-05-08 01:06 40.72915 -73.08461 7489 ft 218 kts 257°
2026-05-08 01:07 40.72489 -73.10416 7063 ft 223 kts 257°
2026-05-08 01:07 40.72061 -73.12379 6770 ft 222 kts 257°
2026-05-08 01:07 40.71642 -73.14315 6486 ft 223 kts 257°
2026-05-08 01:07 40.71210 -73.16313 6218 ft 223 kts 257°
2026-05-08 01:08 40.70790 -73.18276 5964 ft 223 kts 257°
2026-05-08 01:08 40.70361 -73.20261 5703 ft 225 kts 257°
2026-05-08 01:08 40.69936 -73.22232 5450 ft 222 kts 259°
2026-05-08 01:08 40.69934 -73.24211 5194 ft 216 kts 285°
2026-05-08 01:09 40.70301 -73.26128 4946 ft 219 kts 287°
2026-05-08 01:09 40.70682 -73.28060 4693 ft 217 kts 287°
2026-05-08 01:09 40.71060 -73.29975 4431 ft 215 kts 287°
2026-05-08 01:09 40.71452 -73.31879 4164 ft 216 kts 287°
2026-05-08 01:10 40.71854 -73.33791 3919 ft 217 kts 287°
2026-05-08 01:10 40.72253 -73.35703 3666 ft 216 kts 287°
2026-05-08 01:10 40.72648 -73.37614 3419 ft 216 kts 287°
2026-05-08 01:10 40.73041 -73.39522 3161 ft 216 kts 287°
2026-05-08 01:11 40.73423 -73.41417 3041 ft 215 kts 287°
2026-05-08 01:11 40.73815 -73.43331 3034 ft 215 kts 287°
2026-05-08 01:11 40.74208 -73.45234 3034 ft 215 kts 287°
2026-05-08 01:11 40.74596 -73.47134 3032 ft 211 kts 287°
2026-05-08 01:12 40.74965 -73.48952 3036 ft 205 kts 287°
2026-05-08 01:12 40.75337 -73.50776 3033 ft 206 kts 287°
2026-05-08 01:12 40.75708 -73.52593 3034 ft 206 kts 287°
2026-05-08 01:12 40.76074 -73.54388 3005 ft 197 kts 287°
2026-05-08 01:13 40.76416 -73.56087 2922 ft 187 kts 287°
2026-05-08 01:13 40.76738 -73.57707 2793 ft 177 kts 287°
2026-05-08 01:13 40.77058 -73.59293 2357 ft 182 kts 287°
2026-05-08 01:13 40.77350 -73.60888 2068 ft 179 kts 276°
2026-05-08 01:14 40.77016 -73.62491 2028 ft 188 kts 240°
2026-05-08 01:14 40.76284 -73.63920 2025 ft 188 kts 237°
2026-05-08 01:14 40.75542 -73.65341 2029 ft 189 kts 237°
2026-05-08 01:14 40.74818 -73.66718 2021 ft 172 kts 237°
2026-05-08 01:15 40.74040 -73.67881 2032 ft 170 kts 222°
2026-05-08 01:15 40.73073 -73.68797 1995 ft 173 kts 213°
2026-05-08 01:15 40.72024 -73.69593 1772 ft 172 kts 211°
2026-05-08 01:15 40.70998 -73.70400 1532 ft 172 kts 213°
2026-05-08 01:16 40.69977 -73.71199 1295 ft 171 kts 212°
2026-05-08 01:16 40.68957 -73.72002 1064 ft 171 kts 212°
2026-05-08 01:16 40.67928 -73.72810 839 ft 165 kts 212°
2026-05-08 01:16 40.67012 -73.73528 624 ft 143 kts 211°
2026-05-08 01:17 40.66201 -73.74166 436 ft 129 kts 209°
2026-05-08 01:17 40.65460 -73.74745 276 ft 120 kts 209°
2026-05-08 01:17 40.64754 -73.75308 107 ft 118 kts 208°
2026-05-08 01:17 40.64062 -73.75847 25 ft 106 kts 210°
2026-05-08 01:18 40.63601 -73.76207 23 ft 48 kts 210°
2026-05-08 01:18 40.63370 -73.76396 22 ft 39 kts 216°
2026-05-08 01:18 40.63239 -73.76643 20 ft 13 kts 250°
2026-05-08 01:18 40.63235 -73.76693 20 ft 1 kts 287°
2026-05-08 01:19 40.63243 -73.76720 21 ft 6 kts 290°
2026-05-08 01:19 40.63269 -73.76785 20 ft 10 kts 300°
2026-05-08 01:19 40.63314 -73.76885 20 ft 15 kts 302°
2026-05-08 01:19 40.63414 -73.76935 20 ft 18 kts
2026-05-08 01:20 40.63555 -73.76917 20 ft 22 kts
2026-05-08 01:20 40.63721 -73.76915 20 ft 26 kts
2026-05-08 01:20 40.63912 -73.76912 20 ft 29 kts
2026-05-08 01:20 40.64123 -73.76896 21 ft 32 kts
2026-05-08 01:21 40.64348 -73.76883 20 ft 25 kts 359°
2026-05-08 01:21 40.64425 -73.76983 20 ft 15 kts 327°
2026-05-08 01:21 40.64543 -73.76987 20 ft 19 kts
2026-05-08 01:21 40.64686 -73.77002 20 ft 22 kts 339°
2026-05-08 01:22 40.64800 -73.77153 20 ft 25 kts 300°
2026-05-08 01:22 40.64819 -73.77324 20 ft 17 kts 207°
2026-05-08 01:22 40.64729 -73.77409 20 ft 11 kts 241°
2026-05-08 01:22 40.64689 -73.77501 23 ft 10 kts 238°
2026-05-08 01:23 40.64673 -73.77535 20 ft 1 kts 238°
2026-05-08 01:23 40.64670 -73.77541 20 ft 0 kts 238°